| time (UTC) | temp F | wind direction | speed MPH | gust MPH | rain 1hr in | rain 24hr in | rain mn in | humidity % | barometer mb |
| 20260503003049 | 66 | 317 | 1.0 | 8.0 | 0.00 | 0.00 | 0.00 | 30 | 1007.8 |
| 20260503001556 | 67 | 331 | 4.0 | 10.0 | 0.00 | 0.00 | 0.00 | 29 | 1007.9 |
| 20260503000044 | 68 | 279 | 4.0 | 12.0 | 0.00 | 0.00 | 0.00 | 29 | 1008.1 |
| 20260502234545 | 67 | 26 | 3.0 | 12.0 | 0.00 | 0.00 | 0.00 | 29 | 1008.3 |
| 20260502233045 | 67 | 23 | 4.0 | 10.0 | 0.00 | 0.00 | 0.00 | 30 | 1008.4 |
| 20260502231541 | 67 | 284 | 3.0 | 9.0 | 0.00 | 0.00 | 0.00 | 31 | 1008.6 |
| 20260502230040 | 66 | 346 | 1.0 | 6.0 | 0.00 | 0.00 | 0.00 | 32 | 1008.7 |
| 20260502224540 | 66 | 329 | 4.0 | 9.0 | 0.00 | 0.00 | 0.00 | 32 | 1008.9 |
| 20260502223039 | 66 | 321 | 4.0 | 10.0 | 0.00 | 0.00 | 0.00 | 32 | 1008.9 |
| 20260502221542 | 67 | 30 | 3.0 | 9.0 | 0.00 | 0.00 | 0.00 | 32 | 1009.3 |
| 20260502220038 | 66 | 119 | 6.0 | 10.0 | 0.00 | 0.00 | 0.00 | 33 | 1009.4 |
| 20260502214537 | 66 | 17 | 6.0 | 11.0 | 0.00 | 0.00 | 0.00 | 33 | 1009.6 |
| 20260502213036 | 66 | 27 | 5.0 | 10.0 | 0.00 | 0.00 | 0.00 | 33 | 1009.8 |
| 20260502211534 | 65 | 87 | 1.0 | 10.0 | 0.00 | 0.00 | 0.00 | 35 | 1009.9 |
| 20260502210032 | 65 | 355 | 5.0 | 9.0 | 0.00 | 0.00 | 0.00 | 35 | 1010.2 |
| 20260502204533 | 64 | 355 | 3.0 | 13.0 | 0.00 | 0.00 | 0.00 | 36 | 1010.2 |
| 20260502203032 | 64 | 337 | 11.0 | 17.0 | 0.00 | 0.00 | 0.00 | 36 | 1010.3 |
| 20260502201535 | 65 | 12 | 10.0 | 16.0 | 0.00 | 0.00 | 0.00 | 35 | 1010.4 |
| 20260502200030 | 64 | 25 | 6.0 | 13.0 | 0.00 | 0.00 | 0.00 | 35 | 1010.5 |
| 20260502194529 | 65 | 61 | 8.0 | 13.0 | 0.00 | 0.00 | 0.00 | 34 | 1010.5 |
| 20260502193028 | 65 | 355 | 7.0 | 13.0 | 0.00 | 0.00 | 0.00 | 35 | 1010.7 |
| 20260502191526 | 64 | 50 | 4.0 | 15.0 | 0.00 | 0.00 | 0.00 | 34 | 1010.8 |
| 20260502190029 | 64 | 43 | 7.0 | 11.0 | 0.00 | 0.00 | 0.00 | 35 | 1010.8 |
| 20260502184533 | 64 | 126 | 4.0 | 9.0 | 0.00 | 0.00 | 0.00 | 35 | 1011.1 |
| 20260502183026 | 63 | 69 | 5.0 | 11.0 | 0.00 | 0.00 | 0.00 | 36 | 1011.1 |
| 20260502181518 | 63 | 19 | 6.0 | 12.0 | 0.00 | 0.00 | 0.00 | 36 | 1011.3 |
| 20260502163004 | 61 | 63 | 11.0 | 19.0 | 0.00 | 0.00 | 0.00 | 39 | 1011.9 |
| 20260502161624 | 60 | 30 | 12.0 | 19.0 | 0.00 | 0.00 | 0.00 | 39 | 1011.7 |
| 20260502151604 | 57 | 64 | 8.0 | 13.0 | 0.00 | 0.00 | 0.00 | 42 | 1011.9 |
| 20260502054544 | 48 | 275 | 7.0 | 8.0 | 0.00 | 0.00 | 0.00 | 36 | 1008.0 |
| 20260502053040 | 49 | 249 | 5.0 | 7.0 | 0.00 | 0.00 | 0.00 | 33 | 1007.9 |
| 20260502051545 | 49 | 249 | 4.0 | 7.0 | 0.00 | 0.00 | 0.00 | 33 | 1007.9 |
| 20260502050041 | 49 | 249 | 3.0 | 5.0 | 0.00 | 0.00 | 0.00 | 34 | 1007.8 |
| 20260502044541 | 51 | 249 | 4.0 | 7.0 | 0.00 | 0.00 | 0.00 | 31 | 1007.8 |
| 20260502043039 | 52 | 249 | 2.0 | 4.0 | 0.00 | 0.00 | 0.00 | 33 | 1007.7 |
| 20260502041600 | 53 | 249 | 3.0 | 5.0 | 0.00 | 0.00 | 0.00 | 32 | 1007.7 |
| 20260502040042 | 53 | 249 | 3.0 | 5.0 | 0.00 | 0.00 | 0.00 | 32 | 1007.6 |
| 20260502034538 | 55 | 213 | 3.0 | 5.0 | 0.00 | 0.00 | 0.00 | 32 | 1007.5 |
| 20260502033050 | 55 | 242 | 2.0 | 4.0 | 0.00 | 0.00 | 0.00 | 30 | 1007.4 |
| 20260502031537 | 57 | 243 | 3.0 | 5.0 | 0.00 | 0.00 | 0.00 | 27 | 1007.1 |
| 20260502030036 | 60 | 288 | 1.0 | 2.0 | 0.00 | 0.00 | 0.00 | 29 | 1007.0 |
| 20260502024537 | 62 | 288 | 2.0 | 3.0 | 0.00 | 0.00 | 0.00 | 24 | 1006.8 |
| 20260502023035 | 65 | 288 | 1.0 | 3.0 | 0.00 | 0.00 | 0.00 | 24 | 1006.8 |
| 20260502021533 | 67 | 288 | 3.0 | 5.0 | 0.00 | 0.00 | 0.00 | 19 | 1006.6 |
| 20260502020033 | 68 | 288 | 4.0 | 8.0 | 0.00 | 0.00 | 0.00 | 19 | 1006.6 |
| 20260502014533 | 70 | 275 | 5.0 | 7.0 | 0.00 | 0.00 | 0.00 | 18 | 1006.6 |
| 20260502013031 | 72 | 310 | 4.0 | 8.0 | 0.00 | 0.00 | 0.00 | 15 | 1006.6 |
| 20260502011531 | 73 | 304 | 5.0 | 12.0 | 0.00 | 0.00 | 0.00 | 16 | 1006.7 |
| 20260502010028 | 74 | 273 | 4.0 | 9.0 | 0.00 | 0.00 | 0.00 | 15 | 1006.8 |
| 20260502004528 | 74 | 229 | 5.0 | 7.0 | 0.00 | 0.00 | 0.00 | 15 | 1007.0 |